Weather History for KOVL - October, 2012

Change the Weather History Date:

Wednesday, October 17, 2012

  Actual Average (KRWF) Record (KRWF)
Temperature  
Mean Temperature 50 °F -  
Max Temperature 59 °F 59 °F 86 °F (1947)
Min Temperature 42 °F 38 °F 16 °F (1952)
Degree Days  
Heating Degree Days 14    
Moisture  
Dew Point 43 °F    
Average Humidity 73    
Maximum Humidity 93    
Minimum Humidity 55    
Precipitation  
Precipitation 0.05 in - - ()
Sea Level Pressure  
Sea Level Pressure 29.24 in    
Wind  
Wind Speed 13 mph (WSW)    
Max Wind Speed 31 mph    
Max Gust Speed 38 mph    
Visibility 9 miles    
Events Rain    
Averages and records for this station are not official NWS values.
T = Trace of Precipitation, MM = Missing Value Source: NWS Daily Summary

Daily Weather History Graph

Daily Weather History Graph

Search for Another Location

Airport or City:

Trip Planner

Search our weather history database for the weather conditions in past years. The results will help you decide how hot, cold, wet, or windy it might be!

Date:

Astronomy

Oct. 17, 2012 Rise Set
Actual Time 7:38 AM CDT 6:31 PM CDT
Civil Twilight 7:09 AM CDT 7:00 PM CDT
Nautical Twilight 6:35 AM CDT 7:34 PM CDT
Astronomical Twilight 6:01 AM CDT 8:08 PM CDT
Moon 10:21 AM CDT (10/17) 7:59 PM CDT (10/17)
Length of Visible Light 11h 51m
Length of Day
10h 52m
Waxing Crescent, 7% of the Moon is Illuminated
Oct 17
Waxing Crescent
Oct 21
First Quarter
Oct 29
Full
Nov 6
Last Quarter
Nov 13
New

Hourly Weather History & Observations

Time (CDT) Temp. Windchill Dew Point Humidity Pressure Visibility Wind Dir Wind Speed Gust Speed Precip Events Conditions
12:11 AM 53.6 °F - 42.8 °F 67% 29.33 in 10.0 mi SSE 6.9 mph - N/A   Clear
12:31 AM 53.6 °F - 42.8 °F 67% 29.32 in 10.0 mi SE 4.6 mph - N/A   Clear
12:51 AM 53.6 °F - 42.8 °F 67% 29.31 in 10.0 mi ESE 6.9 mph - N/A   Clear
1:11 AM 53.6 °F - 44.6 °F 72% 29.30 in 10.0 mi SE 5.8 mph - N/A   Clear
1:31 AM 53.6 °F - 44.6 °F 72% 29.30 in 10.0 mi SE 4.6 mph - N/A   Clear
1:51 AM 53.6 °F - 42.8 °F 67% 29.29 in 10.0 mi SE 5.8 mph - N/A   Clear
2:11 AM 53.6 °F - 44.6 °F 72% 29.30 in 10.0 mi SSE 6.9 mph - N/A   Clear
2:31 AM 53.6 °F - 44.6 °F 72% 29.29 in 10.0 mi SE 6.9 mph - N/A   Clear
2:50 AM 53.6 °F - 44.6 °F 72% 29.26 in 10.0 mi ESE 10.4 mph - N/A Rain Light Rain
3:11 AM 53.6 °F - 44.6 °F 72% 29.25 in 10.0 mi SE 6.9 mph - N/A   Scattered Clouds
3:30 AM 53.6 °F - 46.4 °F 77% 29.22 in 10.0 mi ESE 6.9 mph - N/A   Scattered Clouds
3:51 AM 57.2 °F - 46.4 °F 67% 29.21 in 10.0 mi SE 6.9 mph - N/A   Clear
4:11 AM 55.4 °F - 44.6 °F 67% 29.20 in 10.0 mi ESE 9.2 mph - N/A Rain Light Rain
4:31 AM 57.2 °F - 46.4 °F 67% 29.18 in 10.0 mi ESE 8.1 mph - N/A   Scattered Clouds
4:51 AM 57.2 °F - 46.4 °F 67% 29.17 in 10.0 mi ESE 11.5 mph - N/A   Light Drizzle
5:11 AM 57.2 °F - 46.4 °F 67% 29.16 in 10.0 mi ESE 10.4 mph - N/A   Scattered Clouds
5:31 AM 57.2 °F - 44.6 °F 63% 29.16 in 10.0 mi South 5.8 mph - N/A   Clear
5:51 AM 57.2 °F - 44.6 °F 63% 29.13 in 10.0 mi ESE 9.2 mph - N/A   Clear
6:11 AM 57.2 °F - 44.6 °F 63% 29.13 in 10.0 mi SE 10.4 mph 18.4 mph N/A   Clear
6:31 AM 59.0 °F - 44.6 °F 59% 29.10 in 10.0 mi SE 10.4 mph - N/A   Clear
6:51 AM 59.0 °F - 44.6 °F 59% 29.10 in 10.0 mi SE 11.5 mph - N/A   Clear
7:11 AM 59.0 °F - 44.6 °F 59% 29.09 in 10.0 mi SSE 10.4 mph - N/A   Clear
7:31 AM 59.0 °F - 44.6 °F 59% 29.09 in 10.0 mi SSE 11.5 mph - N/A   Clear
7:51 AM 59.0 °F - 44.6 °F 59% 29.09 in 10.0 mi South 9.2 mph - N/A   Clear
8:11 AM 59.0 °F - 42.8 °F 55% 29.08 in 10.0 mi SW 13.8 mph - N/A   Clear
8:31 AM 59.0 °F - 44.6 °F 59% 29.09 in 10.0 mi West 19.6 mph 24.2 mph N/A   Clear
8:51 AM 57.2 °F - 46.4 °F 67% 29.11 in 10.0 mi West 19.6 mph 28.8 mph N/A   Clear
9:11 AM 55.4 °F - 46.4 °F 72% 29.11 in 10.0 mi West 25.3 mph 32.2 mph N/A   Clear
9:31 AM 55.4 °F - 48.2 °F 77% 29.13 in 10.0 mi West 25.3 mph 36.8 mph N/A   Mostly Cloudy
9:51 AM 53.6 °F - 48.2 °F 82% 29.15 in 10.0 mi West 29.9 mph 38.0 mph N/A   Overcast
10:11 AM 53.6 °F - 48.2 °F 82% 29.16 in 7.0 mi West 28.8 mph 36.8 mph N/A   Overcast
10:31 AM 53.6 °F - 48.2 °F 82% 29.18 in 10.0 mi West 25.3 mph 33.4 mph N/A   Overcast
10:51 AM 53.6 °F - 46.4 °F 77% 29.20 in 10.0 mi West 31.1 mph 38.0 mph N/A   Overcast
11:11 AM 53.6 °F - 44.6 °F 72% 29.20 in 10.0 mi West 28.8 mph 38.0 mph N/A   Overcast
11:51 AM 53.6 °F - 42.8 °F 67% 29.22 in 10.0 mi West 31.1 mph 35.7 mph N/A   Mostly Cloudy
12:11 PM 53.6 °F - 42.8 °F 67% 29.24 in 10.0 mi West 20.7 mph 32.2 mph N/A   Mostly Cloudy
12:31 PM 53.6 °F - 42.8 °F 67% 29.24 in 10.0 mi West 21.9 mph 32.2 mph N/A   Scattered Clouds
12:51 PM 53.6 °F - 41.0 °F 62% 29.23 in 10.0 mi West 26.5 mph 31.1 mph N/A   Scattered Clouds
1:11 PM 55.4 °F - 41.0 °F 58% 29.23 in 10.0 mi West 26.5 mph 32.2 mph N/A   Scattered Clouds
1:31 PM 57.2 °F - 41.0 °F 55% 29.23 in 10.0 mi West 20.7 mph 28.8 mph N/A   Mostly Cloudy
1:51 PM 57.2 °F - 41.0 °F 55% 29.23 in 10.0 mi West 24.2 mph 28.8 mph N/A   Overcast
2:10 PM 55.4 °F - 41.0 °F 58% 29.23 in 10.0 mi West 23.0 mph 28.8 mph N/A   Mostly Cloudy
2:31 PM 55.4 °F - 41.0 °F 58% 29.23 in 10.0 mi West 24.2 mph 28.8 mph N/A   Overcast
2:51 PM 53.6 °F - 39.2 °F 58% 29.24 in 10.0 mi West 18.4 mph - N/A   Overcast
3:11 PM 53.6 °F - 41.0 °F 62% 29.24 in 10.0 mi West 20.7 mph 25.3 mph N/A   Overcast
3:31 PM 53.6 °F - 41.0 °F 62% 29.25 in 10.0 mi West 24.2 mph 28.8 mph N/A   Mostly Cloudy
3:51 PM 51.8 °F - 42.8 °F 71% 29.25 in 7.0 mi West 18.4 mph 26.5 mph N/A   Mostly Cloudy
4:11 PM 53.6 °F - 44.6 °F 72% 29.25 in 10.0 mi West 25.3 mph 31.1 mph N/A   Overcast
4:31 PM 50.0 °F - 41.0 °F 71% 29.26 in 10.0 mi West 25.3 mph 34.5 mph N/A   Mostly Cloudy
4:51 PM 50.0 °F - 41.0 °F 71% 29.27 in 10.0 mi West 24.2 mph 34.5 mph N/A   Mostly Cloudy
5:11 PM 50.0 °F - 39.2 °F 66% 29.28 in 10.0 mi West 23.0 mph 35.7 mph N/A   Mostly Cloudy
5:31 PM 50.0 °F - 41.0 °F 71% 29.28 in 10.0 mi West 24.2 mph 33.4 mph N/A   Mostly Cloudy
5:51 PM 50.0 °F - 42.8 °F 76% 29.30 in 5.0 mi West 17.3 mph - N/A   Haze
6:11 PM 46.4 °F 38.1 °F 41.0 °F 81% 29.30 in 10.0 mi West 24.2 mph 29.9 mph N/A   Mostly Cloudy
6:30 PM 46.4 °F 39.2 °F 41.0 °F 81% 29.32 in 5.0 mi West 18.4 mph - N/A Rain Light Rain
6:51 PM 46.4 °F 40.4 °F 42.8 °F 87% 29.32 in 7.0 mi West 13.8 mph - N/A Rain Light Rain
7:11 PM 46.4 °F 40.1 °F 42.8 °F 87% 29.32 in 10.0 mi West 15.0 mph 18.4 mph N/A   Scattered Clouds
7:31 PM 46.4 °F 39.8 °F 41.0 °F 81% 29.33 in 10.0 mi West 16.1 mph 23.0 mph N/A   Mostly Cloudy
7:51 PM 44.6 °F 37.2 °F 41.0 °F 87% 29.33 in 5.0 mi West 17.3 mph 24.2 mph N/A   Overcast
8:11 PM 44.6 °F 37.4 °F 41.0 °F 87% 29.33 in 2.5 mi West 16.1 mph 20.7 mph 0.01 in Rain Rain
8:31 PM 42.8 °F 34.5 °F 41.0 °F 93% 29.33 in 4.0 mi West 18.4 mph 23.0 mph 0.01 in   Light Drizzle
8:51 PM 42.8 °F 34.5 °F 41.0 °F 93% 29.32 in 4.0 mi West 18.4 mph 21.9 mph 0.02 in   Drizzle
9:11 PM 42.8 °F 35.1 °F 41.0 °F 93% 29.32 in 5.0 mi West 16.1 mph 20.7 mph 0.01 in   Light Drizzle
9:31 PM 42.8 °F 34.5 °F 41.0 °F 93% 29.32 in 5.0 mi West 18.4 mph - 0.01 in Rain Light Rain
9:51 PM 42.8 °F 37.0 °F 41.0 °F 93% 29.32 in 7.0 mi West 10.4 mph 17.3 mph 0.02 in   Drizzle
10:11 PM 42.8 °F 34.8 °F 41.0 °F 93% 29.32 in 5.0 mi West 17.3 mph 21.9 mph 0.01 in Rain Light Rain
10:30 PM 42.8 °F 35.1 °F 41.0 °F 93% 29.31 in 7.0 mi West 16.1 mph 21.9 mph 0.01 in   Overcast
10:50 PM 42.8 °F 34.8 °F 41.0 °F 93% 29.30 in 10.0 mi West 17.3 mph - 0.01 in   Mostly Cloudy
11:11 PM 42.8 °F 34.3 °F 41.0 °F 93% 29.29 in 7.0 mi West 19.6 mph 24.2 mph N/A   Mostly Cloudy
11:31 PM 42.8 °F 35.1 °F 39.2 °F 87% 29.29 in 10.0 mi West 16.1 mph - N/A   Mostly Cloudy
11:51 PM 42.8 °F 34.5 °F 39.2 °F 87% 29.28 in 7.0 mi West 18.4 mph - N/A   Overcast